Starlink 32710

operational
NORAD ID: 62604 Int'l Des: 2025-008 Owner: SPXS Country: US Constellation: starlink
LEOCIRCULAR

Über Starlink 32710

Beschreibung wird geladen...

Live-Position

3D-Globus wird geladen...

Nächste Überflüge

Höhenverlauf

Altitude vs Time

uPlot chart will show altitude changes over time

Zweizeiliger Elementsatz

1 62604U 25008T 25354.73805698 .00016055 00000-0 59156-3 0 9994
2 62604 43.0043 3.4588 0002126 266.5623 93.4986 15.27587109 53498
Epoch: 20. Dez. 2025 • Age: 15 hours

Aktueller Status

Höhe 487.5 km
Geschwindigkeit 7.63 km/s
Subsatellitenpunkt 42.88°N, 115.89°W
Startdatum 13. Jan. 2025
Alter 0.9 years
Typ internet

Technische Details

Klassifizierung Payload
Masse 730.00 kg
Trockenmasse 700.00 kg
Gesamtmasse 730.00 kg
Länge 0.30 m
Durchmesser 4.10 m
Spannweite 29.00 m
Form Box + pan
Hersteller SPXS
Bus-Typ Starlink V2M
Phasenstatus In Orbit
Besitzer/Staat SPXS/US

Große Konstellationen

Loading constellations...